EW5168 Weather Reports


time (UTC)temp
C
wind
direction
speed
KPH
gust
KPH
rain 1hr
cm
rain 24hr
cm
rain mn
cm
humidity
%
barometer
mb
20260509174153 31 301 0.0 3.2 0.00 0.00 0.00 36 1010.4
20260509174149 30 301 1.6 4.8 0.00 0.00 0.00 38 1010.5
20260509173753 30 225 1.6 4.8 0.00 0.00 0.00 36 1010.6
20260509172645 30 194 1.6 3.2 0.00 0.00 0.00 36 1010.7
20260509172146 30 339 1.6 3.2 0.00 0.00 0.00 36 1010.7
20260509171646 30 348 1.6 4.8 0.00 0.00 0.00 35 1010.7
20260509171143 29 311 1.6 4.8 0.00 0.00 0.00 35 1010.7
20260509170643 29 194 1.6 3.2 0.00 0.00 0.00 35 1010.7
20260509170143 28 238 1.6 3.2 0.00 0.00 0.00 35 1010.7
20260509165648 28 340 1.6 4.8 0.00 0.00 0.00 34 1010.8
20260509165643 28 331 1.6 4.8 0.00 0.00 0.00 35 1010.8
20260509164641 28 346 1.6 3.2 0.00 0.00 0.00 33 1010.8
20260509164137 28 322 1.6 4.8 0.00 0.00 0.00 32 1010.8
20260509163635 28 302 1.6 4.8 0.00 0.00 0.00 30 1010.8
20260509163139 27 329 1.6 4.8 0.00 0.00 0.00 27 1010.9
20260509163135 27 329 1.6 3.2 0.00 0.00 0.00 28 1010.9
20260509162133 27 332 1.6 4.8 0.00 0.00 0.00 26 1010.9
20260509161633 27 338 1.6 3.2 0.00 0.00 0.00 22 1010.9
20260509161131 27 321 1.6 3.2 0.00 0.00 0.00 23 1010.9
20260509160629 26 11 1.6 3.2 0.00 0.00 0.00 18 1011.0
20260509160131 26 306 1.6 4.8 0.00 0.00 0.00 13 1011.0
20260509160128 26 22 1.6 4.8 0.00 0.00 0.00 17 1011.0
20260509155125 26 57 0.0 3.2 0.00 0.00 0.00 5 1011.0
20260509154624 25 318 0.0 3.2 0.00 0.00 0.00 1 1011.1
20260509154129 25 320 1.6 4.8 0.00 0.00 0.00 1 1011.1
20260509154125 25 320 1.6 4.8 0.00 0.00 0.00 1 1011.1
20260509153128 24 5 0.0 3.2 0.00 0.00 0.00 1 1011.1
20260509153123 25 328 0.0 4.8 0.00 0.00 0.00 1 1011.1
20260509152121 24 12 0.0 3.2 0.00 0.00 0.00 1 1011.0
20260509151619 24 323 1.6 3.2 0.00 0.00 0.00 1 1011.0
20260509151118 24 50 1.6 4.8 0.00 0.00 0.00 1 1011.1
20260509150619 23 329 1.6 4.8 0.00 0.00 0.00 1 1011.0
20260509150119 23 82 1.6 4.8 0.00 0.00 0.00 1 1011.0
20260509145619 23 339 1.6 4.8 0.00 0.00 0.00 1 1010.9
20260509145119 23 336 0.0 4.8 0.00 0.00 0.00 1 1010.8
20260509144619 23 339 1.6 4.8 0.00 0.00 0.00 1 1010.7
20260509144119 23 60 1.6 6.4 0.00 0.00 0.00 1 1010.7
20260509143619 23 66 1.6 6.4 0.00 0.00 0.00 1 1010.6
20260509143121 22 67 1.6 4.8 0.00 0.00 0.00 1 1010.6
20260509143117 22 71 1.6 4.8 0.00 0.00 0.00 1 1010.5
20260509142119 22 315 1.6 4.8 0.00 0.00 0.00 1 1010.6
20260509142115 22 9 1.6 4.8 0.00 0.00 0.00 1 1010.6
20260509141115 22 313 1.6 4.8 0.00 0.00 0.00 1 1010.6
20260509140614 22 319 0.0 3.2 0.00 0.00 0.00 1 1010.6
20260509140115 22 42 0.0 3.2 0.00 0.00 0.00 1 1010.7
20260509135613 22 42 0.0 3.2 0.00 0.00 0.00 1 1010.7
20260509135113 22 317 1.6 3.2 0.00 0.00 0.00 1 1010.6
20260509134613 22 332 1.6 3.2 0.00 0.00 0.00 1 1010.7
20260509134112 22 332 0.0 3.2 0.00 0.00 0.00 1 1010.6
20260509133613 22 273 0.0 3.2 0.00 0.00 0.00 1 1010.6
20260509133113 22 321 0.0 3.2 0.00 0.00 0.00 1 1010.4
20260509132613 21 326 0.0 3.2 0.00 0.00 0.00 1 1010.1
20260509132112 21 296 0.0 3.2 0.00 0.00 0.00 1 1009.9
20260509131608 21 296 0.0 3.2 0.00 0.00 0.00 1 1010.0
20260509131112 21 296 0.0 1.6 0.00 0.00 0.00 1 1010.1
20260509131108 21 296 0.0 1.6 0.00 0.00 0.00 1 1009.9
20260509130109 21 296 1.6 4.8 0.00 0.00 0.00 1 1010.1
20260509125609 21 296 1.6 4.8 0.00 0.00 0.00 1 1010.2
20260509125109 21 80 1.6 3.2 0.00 0.00 0.00 1 1010.0
20260509124613 21 0 3.2 9.7 0.00 0.00 0.00 1 1010.2
20260509124609 21 71 1.6 4.8 0.00 0.00 0.00 1 1009.9
20260509123612 21 156 6.4 14.5 0.00 0.00 0.00 1 1008.1
20260509123608 21 146 4.8 14.5 0.00 0.00 0.00 1 1008.9
20260509122608 21 171 6.4 14.5 0.00 0.00 0.00 1 1008.1
20260509122107 21 177 4.8 14.5 0.00 0.00 0.00 1 1008.1
20260509121607 21 177 4.8 14.5 0.00 0.00 0.00 1 1008.1
20260509121106 20 153 4.8 14.5 0.00 0.00 0.00 1 1007.9
20260509120606 20 152 8.0 16.1 0.00 0.00 0.00 1 1007.8
20260509120106 20 194 8.0 17.7 0.00 0.00 0.00 1 1007.6
20260509115608 20 169 8.0 19.3 0.00 0.00 0.00 1 1007.6
20260509115604 20 150 9.7 19.3 0.00 0.00 0.00 1 1007.3
20260509114603 20 151 8.0 16.1 0.00 0.00 0.00 1 1008.0
20260509114102 21 237 6.4 16.1 0.00 0.00 0.00 1 1008.3
20260509113600 21 201 4.8 14.5 0.00 0.00 0.00 1 1008.7
20260509113100 21 193 1.6 8.0 0.00 0.00 0.00 1 1008.9
20260509112600 21 173 1.6 6.4 0.00 0.00 0.00 1 1009.3
20260509112058 21 233 1.6 12.9 0.00 0.00 0.00 1 1009.6
20260509111601 21 194 4.8 11.3 0.00 0.00 0.00 1 1009.5
20260509111557 21 236 3.2 14.5 0.00 0.00 0.00 1 1009.7
20260509110557 21 160 6.4 17.7 0.00 0.00 0.00 1 1009.3
20260509110056 21 159 6.4 17.7 0.00 0.00 0.00 1 1009.1
20260509105556 21 165 6.4 17.7 0.00 0.00 0.00 1 1009.4
20260509105056 21 180 4.8 12.9 0.00 0.00 0.00 1 1009.8
20260509104555 21 203 4.8 12.9 0.00 0.00 0.00 1 1010.0
20260509104055 21 143 4.8 11.3 0.00 0.00 0.00 1 1010.0
20260509103558 21 166 4.8 12.9 0.00 0.00 0.00 1 1010.2
20260509103554 21 171 4.8 12.9 0.00 0.00 0.00 1 1010.1
20260509102558 20 171 1.6 4.8 0.00 0.00 0.00 1 1010.5
20260509102554 20 158 3.2 9.7 0.00 0.00 0.00 1 1010.3
20260509101552 20 167 0.0 4.8 0.00 0.00 0.00 1 1010.5
20260509101058 20 322 0.0 3.2 0.00 0.00 0.00 1 1010.6
20260509101053 20 215 0.0 3.2 0.00 0.00 0.00 1 1010.5
20260509100056 20 328 0.0 1.6 0.00 0.00 0.00 1 1010.7
20260509100052 20 315 0.0 3.2 0.00 0.00 0.00 1 1010.7
20260509095051 20 328 0.0 1.6 0.00 0.00 0.00 1 1010.7
20260509094554 20 119 0.0 0.0 0.00 0.00 0.00 1 1010.7
20260509094550 20 348 0.0 1.6 0.00 0.00 0.00 1 1010.8
20260509093548 20 119 0.0 0.0 0.00 0.00 0.00 1 1010.9
20260509093048 20 119 0.0 0.0 0.00 0.00 0.00 1 1010.8
20260509092551 20 119 0.0 0.0 0.00 0.00 0.00 1 1010.8
20260509092547 20 119 0.0 0.0 0.00 0.00 0.00 1 1010.9
20260509091546 20 119 0.0 0.0 0.00 0.00 0.00 1 1010.8
20260509091046 20 119 0.0 0.0 0.00 0.00 0.00 1 1010.9
20260509090546 20 119 0.0 0.0 0.00 0.00 0.00 1 1010.9
20260509090046 20 119 0.0 0.0 0.00 0.00 0.00 1 1010.6
20260509085545 20 119 0.0 0.0 0.00 0.00 0.00 1 1010.6
20260509085042 20 119 0.0 1.6 0.00 0.00 0.00 1 1010.7
20260509084542 20 119 0.0 1.6 0.00 0.00 0.00 1 1010.8
20260509084043 20 119 0.0 1.6 0.00 0.00 0.00 1 1010.9
20260509083542 20 148 0.0 1.6 0.00 0.00 0.00 1 1011.0
20260509083042 20 146 0.0 1.6 0.00 0.00 0.00 1 1011.1
20260509082541 20 146 0.0 0.0 0.00 0.00 0.00 1 1011.1
20260509082042 20 146 0.0 0.0 0.00 0.00 0.00 1 1011.1
20260509081543 20 146 0.0 0.0 0.00 0.00 0.00 1 1011.1
20260509081040 21 146 0.0 0.0 0.00 0.00 0.00 1 1011.1
20260509080540 21 146 0.0 1.6 0.00 0.00 0.00 1 1011.0
20260509080040 21 146 0.0 3.2 0.00 0.00 0.00 1 1010.9
20260509075537 21 146 1.6 3.2 0.00 0.00 0.00 1 1010.7
20260509075042 21 171 1.6 6.4 0.00 0.00 0.00 1 1010.6
20260509075037 21 194 1.6 3.2 0.00 0.00 0.00 1 1010.6
20260509074036 21 142 1.6 6.4 0.00 0.00 0.00 1 1010.4
20260509073535 21 160 3.2 6.4 0.00 0.00 0.00 1 1010.4
20260509073034 20 188 3.2 8.0 0.00 0.00 0.00 1 1010.5
20260509072533 20 193 3.2 8.0 0.00 0.00 0.00 1 1010.3
20260509072038 20 183 0.0 0.0 0.00 0.00 0.00 1 1010.8
20260509072034 20 165 1.6 6.4 0.00 0.00 0.00 1 1010.2
20260509071637 20 183 0.0 3.2 0.00 0.00 0.00 1 1010.4
20260509071137 20 183 0.0 1.6 0.00 0.00 0.00 1 1010.8
20260509070030 21 183 0.0 1.6 0.00 0.00 0.00 1 1010.9
20260509065530 21 183 0.0 1.6 0.00 0.00 0.00 1 1011.0
20260509065026 21 183 0.0 0.0 0.00 0.00 0.00 1 1011.0
20260509064524 21 183 0.0 1.6 0.00 0.00 0.00 1 1011.0
20260509064024 20 183 0.0 1.6 0.00 0.00 0.00 1 1010.8
20260509063529 20 183 0.0 3.2 0.00 0.00 0.00 1 1010.6
20260509063525 20 183 0.0 1.6 0.00 0.00 0.00 1 1010.6
20260509063129 20 183 0.0 3.2 0.00 0.00 0.00 1 1010.6
20260509062024 20 183 0.0 0.0 0.00 0.00 0.00 1 1010.4
20260509061528 20 183 0.0 0.0 0.00 0.00 0.00 1 1010.2
20260509061524 20 183 0.0 0.0 0.00 0.00 0.00 1 1010.2
20260509060524 20 183 0.0 1.6 0.00 0.00 0.00 1 1010.1
20260509060024 20 183 0.0 3.2 0.00 0.00 0.00 1 1010.0
20260509055522 20 183 0.0 3.2 0.00 0.00 0.00 1 1009.9
20260509055019 20 183 1.6 3.2 0.00 0.00 0.00 1 1009.9
20260509054519 20 183 1.6 3.2 0.00 0.00 0.00 1 1009.9
20260509054019 20 183 0.0 1.6 0.00 0.00 0.00 1 1010.0
20260509053523 20 183 0.0 0.0 0.00 0.00 0.00 1 1010.0
20260509053519 20 183 0.0 1.6 0.00 0.00 0.00 1 1009.9
20260509052515 20 183 0.0 0.0 0.00 0.00 0.00 1 1010.1
20260509052015 21 183 0.0 0.0 0.00 0.00 0.00 1 1010.1
20260509051516 21 183 0.0 0.0 0.00 0.00 0.00 1 1010.3
20260509051015 21 183 0.0 0.0 0.00 0.00 0.00 1 1010.3
20260509050513 21 183 0.0 1.6 0.00 0.00 0.00 1 1010.3
20260509050013 21 183 0.0 1.6 0.00 0.00 0.00 1 1010.2
20260509045513 21 183 0.0 0.0 0.00 0.00 0.00 1 1010.1
20260509045012 21 183 0.0 0.0 0.00 0.00 0.00 1 1010.2
20260509044511 20 183 0.0 0.0 0.00 0.00 0.00 1 1010.3
20260509044015 20 183 0.0 1.6 0.00 0.00 0.00 1 1010.3
20260509044011 20 183 0.0 0.0 0.00 0.00 0.00 1 1010.3
20260509043009 20 183 0.0 1.6 0.00 0.00 0.00 1 1010.2
20260509042509 20 183 0.0 0.0 0.00 0.00 0.00 1 1010.2
20260509042009 20 183 0.0 0.0 0.00 0.00 0.00 1 1010.2
20260509041509 20 183 0.0 0.0 0.00 0.00 0.00 1 1010.2
20260509041009 20 183 0.0 0.0 0.00 0.00 0.00 1 1010.2
20260509040509 20 183 0.0 0.0 0.00 0.00 0.00 1 1010.1
20260509040009 20 183 0.0 0.0 0.00 0.00 0.00 1 1010.1
20260509035509 21 183 0.0 0.0 0.00 0.00 0.00 1 1009.9
20260509035010 21 183 0.0 0.0 0.00 0.00 0.00 1 1009.8
20260509034513 21 183 0.0 0.0 0.00 0.00 0.00 1 1009.7
20260509034509 21 183 0.0 0.0 0.00 0.00 0.00 1 1009.7
20260509033509 21 183 0.0 0.0 0.00 0.00 0.00 1 1009.6
20260509033009 21 183 0.0 0.0 0.00 0.00 0.00 1 1009.6
20260509032508 21 183 0.0 0.0 0.00 0.00 0.00 1 1009.5
20260509032007 21 183 0.0 0.0 0.00 0.00 0.00 1 1009.5
20260509031507 21 183 0.0 0.0 0.00 0.00 0.00 1 1009.5
20260509031004 21 183 0.0 0.0 0.00 0.00 0.00 1 1009.5
20260509030503 21 183 0.0 0.0 0.00 0.00 0.00 1 1009.3
20260509030007 21 183 0.0 0.0 0.00 0.00 0.00 1 1009.0
20260509030003 21 183 0.0 0.0 0.00 0.00 0.00 1 1009.3
20260509025003 21 183 0.0 0.0 0.00 0.00 0.00 1 1009.1
20260509024501 21 183 0.0 0.0 0.00 0.00 0.00 1 1009.1
20260509024001 21 183 0.0 1.6 0.00 0.00 0.00 1 1009.0
20260509023500 21 183 0.0 1.6 0.00 0.00 0.00 1 1008.8
20260509023004 21 183 0.0 0.0 0.00 0.00 0.00 1 1008.7
20260509022959 21 183 0.0 1.6 0.00 0.00 0.00 1 1008.7
20260509021958 22 183 0.0 0.0 0.00 0.00 0.00 1 1008.8
20260509021502 22 183 0.0 1.6 0.00 0.00 0.00 1 1008.7
20260509021458 22 183 0.0 0.0 0.00 0.00 0.00 1 1008.8
20260509020459 22 183 0.0 3.2 0.00 0.00 0.00 1 1008.5
20260509015959 22 183 0.0 3.2 0.00 0.00 0.00 1 1008.4
20260509015458 22 183 0.0 1.6 0.00 0.00 0.00 1 1008.4
20260509014959 22 183 0.0 1.6 0.00 0.00 0.00 1 1008.4
20260509014459 22 183 0.0 1.6 0.00 0.00 0.00 1 1008.3
20260509013959 22 183 0.0 1.6 0.00 0.00 0.00 1 1008.3
20260509013459 22 183 0.0 1.6 0.00 0.00 0.00 1 1008.3
20260509012959 22 183 0.0 1.6 0.00 0.00 0.00 1 1008.4
20260509012456 22 183 0.0 1.6 0.00 0.00 0.00 1 1008.3
20260509011956 22 183 0.0 1.6 0.00 0.00 0.00 1 1008.4
20260509011456 22 183 0.0 1.6 0.00 0.00 0.00 1 1008.4
20260509010954 22 183 0.0 1.6 0.00 0.00 0.00 1 1008.4
20260509010455 22 183 0.0 3.2 0.00 0.00 0.00 1 1008.5
20260509005954 22 183 0.0 3.2 0.00 0.00 0.00 1 1008.5
20260509005454 22 183 0.0 3.2 0.00 0.00 0.00 1 1008.5
20260509004955 22 183 0.0 3.2 0.00 0.00 0.00 1 1008.5
20260509004456 22 183 1.6 4.8 0.00 0.00 0.00 1 1008.6
20260509003956 22 183 1.6 6.4 0.00 0.00 0.00 1 1008.6
20260509003452 22 170 1.6 6.4 0.00 0.00 0.00 1 1008.6
20260509002952 22 155 1.6 8.0 0.00 0.00 0.00 1 1008.6
20260509002452 22 171 1.6 8.0 0.00 0.00 0.00 1 1008.6
20260509001954 22 188 1.6 8.0 0.00 0.00 0.00 1 1008.5
20260509001457 22 174 3.2 9.7 0.00 0.00 0.00 1 1008.4
20260509001453 22 145 1.6 9.7 0.00 0.00 0.00 1 1008.5
20260509000455 22 169 3.2 8.0 0.00 0.00 0.00 1 1008.5
20260508235952 22 200 3.2 8.0 0.00 0.00 0.00 1 1008.5
20260508235452 22 169 3.2 12.9 0.00 0.00 0.00 1 1008.5
20260508234954 22 135 3.2 9.7 0.00 0.00 0.00 1 1008.6
20260508234950 22 138 3.2 12.9 0.00 0.00 0.00 1 1008.5
20260508233950 22 155 1.6 8.0 0.00 0.00 0.00 1 1008.6
20260508233451 22 165 3.2 11.3 0.00 0.00 0.00 1 1008.6
20260508232953 22 172 3.2 11.3 0.00 0.00 0.00 1 1008.5
20260508232949 22 182 3.2 9.7 0.00 0.00 0.00 1 1008.6
20260508231946 22 123 3.2 11.3 0.00 0.00 0.00 1 1008.6
20260508231446 22 131 3.2 12.9 0.00 0.00 0.00 1 1008.7
20260508230950 22 169 3.2 9.7 0.00 0.00 0.00 1 1008.5
20260508230946 22 157 3.2 12.9 0.00 0.00 0.00 1 1008.6
20260508225945 22 116 1.6 9.7 0.00 0.00 0.00 1 1008.5
20260508225443 22 181 1.6 11.3 0.00 0.00 0.00 1 1008.5
20260508224943 22 80 3.2 11.3 0.00 0.00 0.00 1 1008.5
20260508224441 22 170 3.2 9.7 0.00 0.00 0.00 1 1008.6
20260508223940 22 174 3.2 11.3 0.00 0.00 0.00 1 1008.7
20260508223444 22 179 3.2 11.3 0.00 0.00 0.00 1 1008.7
20260508223440 22 150 3.2 11.3 0.00 0.00 0.00 1 1008.7
20260508222439 22 190 3.2 9.7 0.00 0.00 0.00 1 1008.9
20260508221939 22 199 1.6 9.7 0.00 0.00 0.00 1 1008.9
20260508221439 22 185 3.2 9.7 0.00 0.00 0.00 1 1009.0
20260508220941 22 175 3.2 8.0 0.00 0.00 0.00 1 1009.3
20260508220937 22 213 3.2 9.7 0.00 0.00 0.00 1 1009.0
20260508215933 22 140 3.2 8.0 0.00 0.00 0.00 1 1009.1
20260508215432 22 192 3.2 8.0 0.00 0.00 0.00 1 1009.3
20260508214933 22 152 1.6 6.4 0.00 0.00 0.00 1 1009.3
20260508214430 22 142 1.6 8.0 0.00 0.00 0.00 1 1009.5
20260508213931 22 161 1.6 8.0 0.00 0.00 0.00 1 1009.6
20260508213430 22 176 1.6 8.0 0.00 0.00 0.00 1 1009.7
20260508212928 22 192 3.2 8.0 0.00 0.00 0.00 1 1009.8
20260508212427 22 204 1.6 6.4 0.00 0.00 0.00 1 1009.7
20260508211926 22 123 1.6 3.2 0.00 0.00 0.00 1 1009.8
20260508211426 22 162 1.6 6.4 0.00 0.00 0.00 1 1009.8
20260508210926 22 121 3.2 6.4 0.00 0.00 0.00 1 1009.9
20260508210426 22 119 3.2 6.4 0.00 0.00 0.00 1 1009.9
20260508205926 22 88 1.6 6.4 0.00 0.00 0.00 1 1009.8
20260508205426 21 76 1.6 6.4 0.00 0.00 0.00 1 1010.0
20260508204926 21 184 1.6 4.8 0.00 0.00 0.00 1 1010.3
20260508204424 21 92 1.6 4.8 0.00 0.00 0.00 1 1010.3
20260508203923 21 92 1.6 8.0 0.00 0.00 0.00 1 1010.4
20260508203421 21 153 1.6 8.0 0.00 0.00 0.00 1 1010.4
20260508202926 21 131 1.6 8.0 0.00 0.00 0.00 1 1010.6
20260508202922 21 96 1.6 8.0 0.00 0.00 0.00 1 1010.5
20260508201920 21 138 1.6 6.4 0.00 0.00 0.00 1 1010.6
20260508201420 21 171 1.6 6.4 0.00 0.00 0.00 1 1010.7
20260508200920 21 206 1.6 6.4 0.00 0.00 0.00 1 1010.7
20260508200416 21 130 3.2 6.4 0.00 0.00 0.00 1 1010.8
20260508195914 21 123 1.6 6.4 0.00 0.00 0.00 1 1010.8
20260508195414 21 167 1.6 6.4 0.00 0.00 0.00 1 1010.8
20260508194918 21 93 1.6 8.0 0.00 0.00 0.00 1 1010.8
20260508194914 21 169 1.6 3.2 0.00 0.00 0.00 1 1010.9
20260508193917 21 186 0.0 8.0 0.00 0.00 0.00 1 1010.9
20260508193913 20 179 0.0 3.2 0.00 0.00 0.00 1 1011.0
20260508192912 20 182 0.0 4.8 0.00 0.00 0.00 1 1011.1
20260508192412 21 92 3.2 8.0 0.00 0.00 0.00 1 1011.1
20260508191911 21 170 3.2 9.7 0.00 0.00 0.00 1 1011.2
20260508191410 21 198 1.6 9.7 0.00 0.00 0.00 1 1011.2
20260508190908 20 136 0.0 4.8 0.00 0.00 0.00 1 1011.2
20260508190412 20 84 1.6 3.2 0.00 0.00 0.00 1 1011.4
20260508190408 20 167 1.6 4.8 0.00 0.00 0.00 1 1011.3
20260508185409 20 84 1.6 4.8 0.00 0.00 0.00 1 1011.4
20260508184907 20 84 1.6 8.0 0.00 0.00 0.00 1 1011.4
20260508184407 20 71 1.6 8.0 0.00 0.00 0.00 1 1011.5
20260508183913 20 79 1.6 6.4 0.00 0.00 0.00 1 1011.6
20260508183908 20 189 1.6 6.4 0.00 0.00 0.00 1 1011.5
20260508182908 20 79 3.2 6.4 0.00 0.00 0.00 1 1011.6
20260508182406 20 79 3.2 6.4 0.00 0.00 0.00 1 1011.7
20260508181905 20 76 1.6 4.8 0.00 0.00 0.00 1 1011.8
20260508181403 20 74 1.6 4.8 0.00 0.00 0.00 1 1011.8
20260508180903 20 90 1.6 3.2 0.00 0.00 0.00 1 1011.9
20260508180403 20 90 1.6 3.2 0.00 0.00 0.00 1 1012.1
20260508175904 20 115 0.0 3.2 0.00 0.00 0.00 1 1012.1
20260508175404 20 115 0.0 3.2 0.00 0.00 0.00 1 1012.3
20260508174904 20 115 0.0 3.2 0.00 0.00 0.00 1 1012.4
20260508174403 20 115 0.0 3.2 0.00 0.00 0.00 1 1012.4